Retour au catalogue

FENGYUN 1C DEB

ActifSSO
NORAD 30009·DEBRIS·🇨🇳 China

Lancé May 10, 1999 depuis Taiyuan Satellite Launch Center

Loading…

Prochains Passages (prochaines 24 heures)

TLE

FraisSource: Space-Track

Époque: Sep 14, 2026, 02:02 UTC

1 30009U 99025MJ  26257.08534479  .00001228  00000-0  76926-3 0  9995
2 30009  98.9936 315.0099 0061645 285.0595  74.3757 14.05583484  3481

Suivez FENGYUN 1C DEB en temps réel avec AllMySat

Download on the App Store